FENGYUN 1C DEB

Satellite information

Favourite Embed

Satellite Type and Status

DEBRISIN ORBIT

Key statistics

Satellite FENGYUN 1C DEB at a glance.

Uptime

9715

Days in orbit

Revolutions

≈ 14.4

Per day

Orbit

SSO

Sun Synchronous Orbit

Inclination

99.9

Latest

Satellite identification and parameters

Extended collection of information and parameters for FENGYUN 1C DEB.

Object identification

Identified? True

Debris? True

Object name: FENGYUN 1C DEB

International designator: 1999-025CVD

Object number (NORAD): 32207

Object ID (CCSDS): 32207

Country: PEOPLES REPUBLIC OF CHINA (PRC)

Current information (Y/N): Y

RCS size: SMALL

Orbital parameters

Period: 100.03 minutes

Inclination: 99.8553 deg

SMA: 7138.058 km

Apoapsis: 820.772 km

Periapsis: 699.073 km

RAAN: 305.0027 deg

Eccentricy: 0.00852472

Argument of periapsis: 139.3042 deg

Mean anomaly: 236.8167 deg

Mean motion: 14.39569701 rev/day

Mean motion (dot): 0.00001529 rev/day2

B* drag term: 0.00048704631 1/REarth

Two-line elements (TLE)

Creation date: Dec. 12, 2025, 10:14 a.m.

Reference frame: TEME

Reference center: EARTH

Epoch: Dec. 12, 2025, 4 a.m. UTC

TLE line 0: 0 FENGYUN 1C DEB

TLE line 1: 1 32207U 99025CVD 25346.16703427 .00001529 00000-0 48705-3 0 9993

TLE line 2: 2 32207 99.8553 305.0027 0085247 139.3042 236.8167 14.39569701642998

Live tracking on map

Real-time ground track for satellite FENGYUN 1C DEB.

In-orbit conjunctions

A list of the most updated potential collisions computed for object FENGYUN 1C DEB.

Target Orbit TCA Probability of collision Miss distance Type
CZ-6A DEB LEO 2024-10-05 10:47:04 0.0001133087 809.0 (m) DEBRIS
CZ-6A DEB LEO 2024-10-04 21:19:18 0.0001034255 251.0 (m) DEBRIS
NOAA 16 DEB SSO 2024-09-12 16:32:49 0.0002493866 48.0 (m) DEBRIS

Associated space launch

Chinese polar orbiting meteorological satellite

FENGYUN 1C DEB was lifted into orbit during the mission ‘Long March 4B | Feng Yun 1C’, on board a Long March 4B space rocket.

The launch took place on May 10, 1999, 1:33 a.m. from Launch Complex 7.

For more information about the launch, click the button.

Launch to space Long March 4B | Feng Yun 1C
Long March 4B | Feng Yun 1C

Agency: N/A

Status: Launch Successful

Launch date: May 10, 1999, 1:33 a.m. UTC

Rocket: Long March 4B

Launch pad: Launch Complex 7

Location: Taiyuan Satellite Launch Center, People's Republic of China

...

Latest news about this satellite

There are no fresh news available about this satellite. Check back as we update our databases every day.


Newsletter sign-up

Weekly statistics, charts and insights to help you stay on top of the space industry.